This is the latest recevied weather packets stored in our database for station/object AE5PL. If no packets are shown the sender has not sent any weather packets the latest 10 day(s).
| Time | Temp. | Humidity | Pressure | Rain* | Wind** | Luminosity | Snow |
|---|---|---|---|---|---|---|---|
| 1777435903 | 21.11° C | 84% | 1012 hPa | - | - | - | - |
| 1777435603 | 21.67° C | 85% | 1012 hPa | - | - | - | - |
| 1777435303 | 22.22° C | 86% | 1012 hPa | - | - | - | - |
| 1777435003 | 22.22° C | 86% | 1011.9 hPa | - | - | - | - |
| 1777434703 | 23.33° C | 88% | 1011.8 hPa | - | - | - | - |
| 1777434403 | 23.89° C | 92% | 1011.7 hPa | - | - | - | - |
| 1777434103 | 24.44° C | 92% | 1011.6 hPa | - | - | - | - |
| 1777433803 | 24.44° C | 92% | 1011.5 hPa | - | - | - | - |
| 1777433503 | 24.44° C | 92% | 1011.4 hPa | - | - | - | - |
| 1777433203 | 24.44° C | 92% | 1011.3 hPa | - | - | - | - |
| 1777432903 | 24.44° C | 92% | 1011.3 hPa | - | - | - | - |
| 1777432603 | 24.44° C | 92% | 1011.3 hPa | - | - | - | - |
| 1777432303 | 24.44° C | 91% | 1011.4 hPa | - | - | - | - |
| 1777432003 | 24.44° C | 91% | 1011.2 hPa | - | - | - | - |
| 1777431703 | 24.44° C | 91% | 1011 hPa | - | - | - | - |
| 1777431403 | 24.44° C | 90% | 1010.9 hPa | - | - | - | - |
| 1777431103 | 25° C | 90% | 1010.7 hPa | - | - | - | - |
| 1777430803 | 25° C | 90% | 1010.5 hPa | - | - | - | - |
| 1777430503 | 25° C | 90% | 1010.3 hPa | - | - | - | - |
| 1777430203 | 25° C | 90% | 1010.3 hPa | - | - | - | - |
| 1777429903 | 25° C | 90% | 1010 hPa | - | - | - | - |
| 1777429603 | 25° C | 90% | 1010 hPa | - | - | - | - |
| 1777429303 | 25° C | 90% | 1010.1 hPa | - | - | - | - |
| 1777429003 | 25° C | 90% | 1010.1 hPa | - | - | - | - |
| 1777428703 | 25.56° C | 90% | 1009.9 hPa | - | - | - | - |
* Rain since midnight (hover to see other rain measurements)
** Current wind speed in m/s (hover to see current wind gust speed)